Flag for U.S.A. Weather past 2 weeks in Glendale, California, U.S.A.

Now
81 °F

Clear.


Feels Like: 81 °F
Forecast: 68 / 92 °F
Wind: No wind

Location: Burbank-Glendale-Pasadena Airport

Current Time: Aug 4, 2015 at 9:44:48 PM

Latest Report: Aug 4, 2015 at 8:53 PM


Visibility: 10 mi

Pressure: 29.86 "Hg

Humidity: 42%

Dew point: 56 °F

Location of GlendaleLocation

Historic Weather in Glendale — Graph

°F

Glendale temperature yesterday

Maximum temperature yesterday: 87 °F (at 12:53 PM)
Minimum temperature yesterday: 67 °F (at 5:53 AM)
Average temperature yesterday: 76 °F

Past Weeks' High & Low Weather Summary

 TemperatureHumidityPressure
High91 °F (Jul 25, 3:53 PM)90% (Jul 21, 2:53 AM)30.05 "Hg (Jul 21, 2:53 AM)
Low64 °F (Jul 28, 5:01 AM)26% (Jul 25, 3:53 PM)29.78 "Hg (Aug 2, 6:53 PM)
Average76 °F63%29.89 "Hg
* Reported Jul 20 7:53 PM — Aug 4 7:53 PM, Glendale, Weather by CustomWeather, © 2015

Note: Actual official high and low records may vary slightly from our data, if they occured in-between our weather recording intervals... More about our weather records

Advertising

Glendale weather history for previous 24 hours

 ConditionsComfort  
Time TempWeatherWind HumidityBarometerVisibility
7:53 PM
Tue, Aug 4
83 °FSunny.8 mph36%29.85 "Hg10 mi
6:53 PM87 °FSunny.8 mph32%29.83 "Hg10 mi
5:53 PM87 °FSunny.10 mph35%29.84 "Hg10 mi
4:53 PM91 °FSunny.9 mph28%29.84 "Hg10 mi
3:53 PM90 °FSunny.6 mph27%29.85 "Hg10 mi
2:53 PM89 °FSunny.9 mph31%29.87 "Hg10 mi
1:53 PM90 °FSunny.12 mph34%29.87 "Hg10 mi
12:53 PM90 °FSunny.10 mph33%29.88 "Hg10 mi
11:53 AM87 °FSunny.10 mph39%29.89 "Hg10 mi
10:53 AM84 °FSunny.8 mph45%29.89 "Hg10 mi
9:53 AM80 °FSunny.6 mph47%29.90 "Hg10 mi
8:53 AM76 °FSunny.No wind56%29.89 "Hg10 mi
7:53 AM73 °FSunny.No wind57%29.88 "Hg10 mi
6:53 AM70 °FClear.No wind61%29.87 "Hg10 mi
5:53 AM68 °FClear.No wind68%29.85 "Hg10 mi
4:53 AM69 °FClear.No wind66%29.85 "Hg10 mi
3:53 AM70 °FClear.No wind66%29.84 "Hg10 mi
2:53 AM71 °FClear.No wind66%29.84 "Hg10 mi
1:53 AM72 °FClear.No wind64%29.84 "Hg10 mi
12:53 AM72 °FClear.5 mph64%29.85 "Hg10 mi
11:53 PM
Mon, Aug 3
74 °FClear.5 mph60%29.84 "Hg10 mi
10:53 PM74 °FClear.3 mph62%29.84 "Hg10 mi
9:53 PM75 °FClear.5 mph58%29.85 "Hg10 mi
Weather by CustomWeather, © 2015

See weather overviewHow to use our weather pages